Previsão horária em Çekerek

Hoje, 31 Julho, Sábado

Tempo Temperatura Precipitação Vento Pressão Humidade
00:00 +18°C° 0 mm 1 m/s 676 mmHg 72%
01:00 +16°C° 0 mm 1 m/s 676 mmHg 75%
02:00 +15°C° 0 mm 1 m/s 676 mmHg 78%
03:00 +15°C° 0 mm 1 m/s 676 mmHg 79%
04:00 +15°C° 0 mm 1 m/s 676 mmHg 80%
05:00 +15°C° 0 mm 1 m/s 675 mmHg 81%
06:00 +18°C° 0 mm 1 m/s 676 mmHg 70%
07:00 +20°C° 0 mm 2 m/s 677 mmHg 59%
08:00 +23°C° 0 mm 2 m/s 677 mmHg 48%
09:00 +25°C° 0 mm 3 m/s 677 mmHg 42%
10:00 +27°C° 0 mm 4 m/s 677 mmHg 35%
11:00 +29°C° 0 mm 5 m/s 677 mmHg 29%
12:00 +30°C° 0 mm 5 m/s 677 mmHg 26%
13:00 +32°C° 0 mm 6 m/s 677 mmHg 24%
14:00 +33°C° 0 mm 6 m/s 677 mmHg 22%
15:00 +32°C° 0 mm 7 m/s 677 mmHg 23%
16:00 +30°C° 0 mm 7 m/s 676 mmHg 25%
17:00 +29°C° 0 mm 7 m/s 676 mmHg 27%
18:00 +26°C° 0 mm 6 m/s 676 mmHg 34%
19:00 +23°C° 0 mm 4 m/s 676 mmHg 41%
20:00 +20°C° 0 mm 2 m/s 676 mmHg 49%
21:00 +19°C° 0 mm 2 m/s 676 mmHg 53%
22:00 +18°C° 0 mm 2 m/s 676 mmHg 57%
23:00 +17°C° 0 mm 2 m/s 676 mmHg 62%

Amanhã, 1 Agosto, Domingo

Tempo Temperatura Precipitação Vento Pressão Humidade
00:00 +18°C° 0 mm 1 m/s 676 mmHg 65%
01:00 +16°C° 0 mm 1 m/s 676 mmHg 69%
02:00 +15°C° 0 mm 1 m/s 676 mmHg 73%
03:00 +15°C° 0 mm 1 m/s 676 mmHg 75%
04:00 +15°C° 0 mm 1 m/s 676 mmHg 77%
05:00 +14°C° 0 mm 1 m/s 676 mmHg 79%
06:00 +18°C° 0 mm 1 m/s 677 mmHg 68%
07:00 +19°C° 0 mm 2 m/s 677 mmHg 58%
08:00 +23°C° 0 mm 2 m/s 678 mmHg 48%
09:00 +25°C° 0 mm 3 m/s 678 mmHg 42%
10:00 +27°C° 0 mm 3 m/s 678 mmHg 37%
11:00 +29°C° 0 mm 4 m/s 678 mmHg 31%
12:00 +30°C° 0 mm 4 m/s 678 mmHg 28%
13:00 +32°C° 0 mm 5 m/s 677 mmHg 26%
14:00 +33°C° 0 mm 5 m/s 677 mmHg 23%
15:00 +32°C° 0 mm 6 m/s 677 mmHg 27%
16:00 +30°C° 0 mm 6 m/s 677 mmHg 30%
17:00 +29°C° 0 mm 7 m/s 677 mmHg 33%
18:00 +27°C° 0 mm 6 m/s 677 mmHg 42%
19:00 +23°C° 0 mm 4 m/s 677 mmHg 52%
20:00 +20°C° 0 mm 3 m/s 677 mmHg 61%
21:00 +19°C° 0 mm 2 m/s 677 mmHg 67%
22:00 +18°C° 0 mm 2 m/s 677 mmHg 72%
23:00 +17°C° 0 mm 2 m/s 677 mmHg 78%

Depois de amanhã, 2 Agosto, Segunda-feira

Tempo Temperatura Precipitação Vento Pressão Humidade
00:00 +17°C° 0 mm 2 m/s 676 mmHg 81%
01:00 +16°C° 0 mm 1 m/s 676 mmHg 84%
02:00 +16°C° 0 mm 1 m/s 676 mmHg 87%
03:00 +16°C° 0 mm 1 m/s 676 mmHg 88%
04:00 +15°C° 0 mm 1 m/s 677 mmHg 89%
05:00 +15°C° 0 mm 1 m/s 677 mmHg 90%
06:00 +17°C° 0 mm 2 m/s 677 mmHg 78%
07:00 +20°C° 0 mm 2 m/s 678 mmHg 67%
08:00 +22°C° 0 mm 3 m/s 678 mmHg 56%
09:00 +25°C° 0 mm 3 m/s 678 mmHg 50%
10:00 +27°C° 0 mm 4 m/s 678 mmHg 44%
11:00 +29°C° 0 mm 4 m/s 678 mmHg 38%
12:00 +30°C° 0 mm 5 m/s 678 mmHg 35%
13:00 +32°C° 0 mm 5 m/s 678 mmHg 32%
14:00 +33°C° 0 mm 5 m/s 677 mmHg 29%
15:00 +33°C° 0 mm 6 m/s 677 mmHg 30%
16:00 +32°C° 0 mm 7 m/s 677 mmHg 32%
17:00 +30°C° 0 mm 7 m/s 677 mmHg 34%
18:00 +28°C° 0 mm 6 m/s 677 mmHg 43%
19:00 +25°C° 0 mm 4 m/s 677 mmHg 52%
20:00 +21°C° 0 mm 2 m/s 677 mmHg 62%
21:00 +20°C° 0 mm 2 m/s 677 mmHg 66%
22:00 +19°C° 0 mm 2 m/s 677 mmHg 71%
23:00 +19°C° 0 mm 1 m/s 677 mmHg 75%

3 Agosto, Terça-feira

Tempo Temperatura Precipitação Vento Pressão Humidade
00:00 +19°C° 0 mm 1 m/s 677 mmHg 78%
01:00 +18°C° 0 mm 1 m/s 677 mmHg 81%
02:00 +18°C° 0 mm 1 m/s 677 mmHg 83%
03:00 +16°C° 0 mm 1 m/s 677 mmHg 84%
04:00 +16°C° 0 mm 1 m/s 677 mmHg 85%
05:00 +16°C° 0 mm 1 m/s 677 mmHg 86%
06:00 +19°C° 0 mm 1 m/s 678 mmHg 75%
07:00 +22°C° 0 mm 1 m/s 678 mmHg 63%
08:00 +24°C° 0 mm 2 m/s 679 mmHg 52%
09:00 +27°C° 0 mm 2 m/s 679 mmHg 45%
10:00 +29°C° 0 mm 3 m/s 679 mmHg 38%
11:00 +32°C° 0 mm 4 m/s 679 mmHg 31%
12:00 +33°C° 0 mm 5 m/s 679 mmHg 28%
13:00 +34°C° 0 mm 5 m/s 679 mmHg 25%
14:00 +35°C° 0 mm 5 m/s 679 mmHg 23%
15:00 +34°C° 0 mm 6 m/s 678 mmHg 25%
16:00 +34°C° 0 mm 7 m/s 678 mmHg 27%
17:00 +33°C° 0 mm 8 m/s 678 mmHg 29%
18:00 +29°C° 0 mm 6 m/s 678 mmHg 37%
19:00 +26°C° 0 mm 4 m/s 678 mmHg 45%
20:00 +23°C° 0 mm 2 m/s 678 mmHg 54%
21:00 +21°C° 0 mm 2 m/s 678 mmHg 59%
22:00 +20°C° 0 mm 2 m/s 678 mmHg 64%
23:00 +19°C° 0 mm 2 m/s 678 mmHg 69%

4 Agosto, Quarta-feira

Tempo Temperatura Precipitação Vento Pressão Humidade
00:00 +20°C° 0 mm 1 m/s 678 mmHg 73%
01:00 +19°C° 0 mm 1 m/s 678 mmHg 76%
02:00 +19°C° 0 mm 1 m/s 678 mmHg 80%
03:00 +18°C° 0 mm 1 m/s 678 mmHg 81%
04:00 +18°C° 0 mm 1 m/s 678 mmHg 83%
05:00 +18°C° 0 mm 1 m/s 678 mmHg 84%
06:00 +20°C° 0 mm 1 m/s 679 mmHg 72%
07:00 +23°C° 0 mm 2 m/s 679 mmHg 60%
08:00 +26°C° 0 mm 2 m/s 680 mmHg 48%
09:00 +28°C° 0 mm 3 m/s 680 mmHg 41%
10:00 +30°C° 0 mm 4 m/s 680 mmHg 33%
11:00 +33°C° 0 mm 5 m/s 680 mmHg 26%
12:00 +34°C° 0 mm 5 m/s 680 mmHg 24%
13:00 +35°C° 0 mm 5 m/s 680 mmHg 21%
14:00 +36°C° 0 mm 5 m/s 679 mmHg 19%
15:00 +35°C° 0 mm 6 m/s 679 mmHg 21%
16:00 +35°C° 0 mm 6 m/s 679 mmHg 23%
17:00 +34°C° 0 mm 7 m/s 679 mmHg 25%
18:00 +30°C° 0 mm 5 m/s 679 mmHg 34%
19:00 +27°C° 0 mm 4 m/s 679 mmHg 42%
20:00 +24°C° 0 mm 3 m/s 679 mmHg 51%
21:00 +23°C° 0 mm 2 m/s 678 mmHg 56%
22:00 +21°C° 0 mm 2 m/s 678 mmHg 62%
23:00 +19°C° 0 mm 2 m/s 678 mmHg 67%

5 Agosto, Quinta-feira

Tempo Temperatura Precipitação Vento Pressão Humidade
00:00 +20°C° 0 mm 1 m/s 678 mmHg 70%
01:00 +19°C° 0 mm 1 m/s 678 mmHg 74%
02:00 +18°C° 0 mm 1 m/s 678 mmHg 78%
03:00 +18°C° 0 mm 1 m/s 677 mmHg 79%
04:00 +18°C° 0 mm 1 m/s 677 mmHg 80%
05:00 +18°C° 0 mm 1 m/s 677 mmHg 81%
06:00 +20°C° 0 mm 1 m/s 678 mmHg 69%
07:00 +23°C° 0 mm 1 m/s 678 mmHg 57%
08:00 +26°C° 0 mm 1 m/s 678 mmHg 45%
09:00 +28°C° 0 mm 1 m/s 678 mmHg 37%
10:00 +31°C° 0 mm 2 m/s 679 mmHg 29%
11:00 +34°C° 0 mm 3 m/s 679 mmHg 21%
12:00 +35°C° 0 mm 3 m/s 678 mmHg 19%
13:00 +36°C° 0 mm 3 m/s 678 mmHg 16%
14:00 +37°C° 0 mm 4 m/s 678 mmHg 14%
15:00 +37°C° 0 mm 4 m/s 677 mmHg 14%
16:00 +37°C° 0 mm 4 m/s 677 mmHg 15%
17:00 +36°C° 0 mm 4 m/s 677 mmHg 15%
18:00 +33°C° 0 mm 4 m/s 676 mmHg 23%
19:00 +29°C° 0 mm 3 m/s 676 mmHg 31%
20:00 +26°C° 0 mm 2 m/s 676 mmHg 38%
21:00 +25°C° 0 mm 2 m/s 676 mmHg 42%
22:00 +24°C° 0 mm 2 m/s 675 mmHg 46%
23:00 +23°C° 0 mm 1 m/s 675 mmHg 49%
Mostrar mais

Necessitamos do seu Consentimento

A Meteoprog e os seus Fornecedores de Serviços podem armazenar e aceder a dados pessoais como cookies, identificadores do dispositivo ou outras tecnologias semelhantes existentes no seu dispositivo e processar estes dados para personalizar conteúdos e anúncios, assim como funcionalidades nas redes sociais e análise de tráfego.

  • Armazenar e/ou aceder a informações no seu dispositivo

    Os cookies, identificadores do dispositivo ou outras informações podem ser armazenados ou acedidos no seu dispositivo, para os fins acima indicados.

  • Anúncios e conteúdos personalizados, medição de anúncios e conteúdos, dados sobre o público-alvo e desenvolvimento de produtos

    Os anúncios e os conteúdos podem ser personalizados com base num perfil. Podem ser adicionados dados adicionais para uma maior personalização dos anúncios e dos conteúdos. A eficácia dos anúncios e dos conteúdos pode ser medida. Podem ser obtidas informações sobre o público que visualizou os anúncios e os conteúdos. Estes dados podem ser usados para desenvolver ou melhorar sistemas, softwares ou a experiência do utilizador.

Ao clicar em "Eu concordo”, permitirá o uso de cookies, identificadores do dispositivo e web beacons mencionados ou outras tecnologias semelhantes. As configurações do navegador do seu dispositivo podem ser alteradas.

Para certos fins, podem ser invocados interesses legítimos ao invés de consentimento. Pode ler mais informação sobre este assunto na nossa Política de Privacidade e Cookies.